Погода в Больших Алгашах

Россия / Чувашская Республика     55°21′40″N   46°27′14″E
темп.,
°C
ветер,
м/с
пор.,
м/с
влажн.,
%
обл.,
%
осадки,
мм/ч
давл.,
гПа
погр.,
м
15 апреля, чт
чт1500:00+11ююв36880 0.0 102195
03:00+10ююв22890 0.0 102118
06:00+10ююв238726 0.0 102049
09:00+15ю236012 0.0 1020380
12:00+18юз224299 0.0 10191420
15:00+19юз113460 0.0 10181673
18:00+16сз11461 0.0 101811
21:00+12ссв22691 0.0 101921
16 апреля, пт
пт1600:00+10св39863 0.0 1019183
03:00+9св4996100 0.0 1021340
06:00+9всв5988100 0.0 1022479
09:00+10всв5881100 0.0 1023592
12:00+13всв566965 0.0 1023793
15:00+14св566223 0.0 1023970
18:00+11всв597014 0.0 1024749
21:00+8всв411745 0.0 1025406
17 апреля, сб
сб1700:00+6всв310745 0.0 1025327
03:00+5всв410765 0.0 1026304
06:00+5всв4117410 0.0 1026374
09:00+9всв58558 0.0 1027690
12:00+13всв574219 0.0 10261107
15:00+14всв56385 0.0 10251286
18:00+11всв48445 0.0 1026296
21:00+6всв310595 0.0 1026226
18 апреля, вс
вс1800:00+5всв311652 0.0 1025282
03:00+3всв39770 0.0 1026170
06:00+4всв411720 0.0 1025298
09:00+9всв58480 0.0 10251035
12:00+12всв56391 0.0 10241552
15:00+13всв56385 0.0 10241896
18:00+11всв4849100 0.0 1025320
21:00+7всв61368100 0.0 1026658
19 апреля, пн
пн1900:00+5всв41167100 0.0 1027506
03:00+3всв51256100 0.0 1028510
06:00+2всв51155100 0.0 1029523
09:00+5в6951100 0.0 1030912
12:00+7в6837100 0.0 10301601
15:00+7в6832100 0.0 10291637
18:00+5в5939100 0.0 10291159
21:00+3всв51245100 0.0 1030552